JE2VQT13 Weather Reports


time (UTC)temp
C
wind
direction
speed
KPH
gust
KPH
rain 1hr
cm
rain 24hr
cm
rain mn
cm
humidity
%
barometer
mb
20260504081507 17 163 0.0 3.2 0.00 0.00 0.00 71 1008.1
20260504050008 21 190 1.6 4.8 0.00 0.00 0.00 55 1004.0
20260504044507 22 183 1.6 8.0 0.00 0.00 0.00 53 1003.7
20260504043007 23 189 1.6 14.5 0.00 0.00 0.00 43 1003.4
20260504040007 23 195 6.4 19.3 0.00 0.00 0.00 44 1003.0
20260504034507 22 188 3.2 19.3 0.00 0.00 0.00 46 1003.1
20260504033007 22 198 0.0 16.1 0.00 0.00 0.00 51 1003.3
20260504031507 22 207 4.8 19.3 0.00 0.00 0.00 51 1003.3
20260504030007 22 201 3.2 19.3 0.00 0.00 0.00 50 1003.1
20260504024507 24 194 4.8 14.5 0.00 0.00 0.00 49 1003.2
20260504023007 24 190 4.8 12.9 0.00 0.00 0.00 53 1003.3
20260504021508 23 203 3.2 12.9 0.00 0.00 0.00 55 1003.3
20260504020009 23 169 1.6 12.9 0.00 0.00 0.00 56 1003.3
20260504013009 23 197 3.2 12.9 0.00 0.00 0.00 60 1003.4
20260504010007 23 185 1.6 4.8 0.00 0.00 0.00 66 1003.5
20260504004508 22 189 0.0 1.6 0.00 0.00 0.00 70 1003.3
20260504000006 22 192 0.0 3.2 0.00 0.00 0.00 73 1003.0
20260503234507 21 190 0.0 1.6 0.00 0.00 0.00 75 1003.3
20260503233006 20 190 0.0 1.6 0.00 0.00 0.00 78 1003.2
20260503230006 19 190 0.0 0.0 0.00 0.00 0.00 87 1003.0
20260503224508 18 190 0.0 0.0 0.00 0.00 0.00 88 1002.9
20260503223007 18 190 0.0 0.0 0.00 0.00 0.00 90 1002.7
20260503220006 18 190 0.0 0.0 0.00 0.00 0.00 93 1002.1
20260503211507 18 197 0.0 1.6 0.00 0.00 0.00 95 1001.8
20260503210006 18 190 0.0 0.0 0.00 0.00 0.00 95 1001.7
20260503204507 18 190 0.0 1.6 0.00 0.00 0.00 96 1000.9
20260503203006 18 190 0.0 1.6 0.00 0.00 0.00 96 1001.2
20260503201507 18 190 1.6 4.8 0.00 0.00 0.00 96 1001.1
20260503200006 18 190 0.0 1.6 0.00 0.00 0.00 96 1000.8
20260503193006 19 197 0.0 4.8 0.00 0.00 0.00 96 1000.0
20260503191506 19 224 0.0 1.6 0.00 0.00 0.00 96 999.6
20260503190007 19 190 0.0 3.2 0.00 0.00 0.00 96 999.6
20260503184507 20 190 0.0 4.8 0.00 0.00 0.00 96 999.3
20260503183007 20 212 0.0 4.8 0.00 0.00 0.00 96 998.9
20260503181506 20 210 1.6 4.8 0.00 0.00 0.00 96 999.0
20260503180006 20 190 0.0 4.8 0.00 0.00 0.00 95 998.4
20260503174506 20 190 0.0 4.8 0.00 0.00 0.00 95 998.6
20260503173007 20 190 0.0 3.2 0.00 0.00 0.00 95 998.5
20260503171506 20 141 1.6 8.0 0.00 0.00 0.00 95 998.8